Location: Ar Ranvel
(48.3000°N, 4.8833°W)
Time: 10:53:58
(UTC+00:00)

NOSS 0 Rocket - Pass Details

Date: 16 June 2021
Orbit: 934 x 956 km, 70.0° (Epoch: 28 July)

Event Time Altitude Azimuth Distance (km) Brightness Sun altitude
Exits shadow 23:45:22 24° 202° (SSW) 1,850 5.0 -17.9°
Maximum altitude 23:49:18 82° 118° (ESE) 964 3.9 -18.0°
Drops below altitude 10° 23:55:34 10° 31° (NNE) 2,689 7.1 -18.1°
Sets 23:58:06 0° 31° (NNE) 3,641 7.9 -18.1°
